Location: Oroua River
(40.4333°S, 175.4333°E)
Time: 15:13:54
(UTC+00:00)

Cosmos 1680 Rocket - Pass Details

Date: 03 February 2023
Orbit: 758 x 780 km, 74.1° (Epoch: 22 March)

Event Time Altitude Azimuth Distance (km) Brightness Sun altitude
Exits shadow 14:18:54 45° 233° (SW) 1,064 4.2 -27.9°
Drops below altitude 10° 14:23:42 10° 172° (S) 2,369 6.9 -27.5°
Sets 14:26:13 0° 166° (SSE) 3,305 7.9 -27.2°
